Time,TemperatureF,DewpointF,PressureIn,WindDirection,WindDirectionDegrees,WindSpeedMPH,WindSpeedGustMPH,Humidity,HourlyPrecipIn,Conditions,Clouds,dailyrainin,SoftwareType,DateUTC
2013-04-12 00:03:00,76.0,-99.9,29.90,North,-999,-999.0,-999.0,-999,-99.99,,,-99.99,,2013-04-12 04:03:00,
2013-04-12 00:23:00,-999.0,-99.9,29.90,South,172,11.0,13.0,-999,-99.99,,,-99.99,,2013-04-12 04:23:00,
2013-04-12 00:33:00,-999.0,-99.9,29.90,South,170,11.0,13.0,-999,-99.99,,,-99.99,,2013-04-12 04:33:00,
2013-04-12 00:43:00,77.0,-99.9,29.90,North,-999,-999.0,-999.0,-999,-99.99,,,-99.99,,2013-04-12 04:43:00,
2013-04-12 00:53:00,-999.0,-99.9,29.91,South,184,8.0,10.0,-999,-99.99,,,-99.99,,2013-04-12 04:53:00,
2013-04-12 01:03:00,-999.0,-99.9,29.91,South,181,9.0,10.0,-999,-99.99,,,-99.99,,2013-04-12 05:03:00,
2013-04-12 01:23:00,-999.0,-99.9,29.92,South,182,7.0,10.0,-999,-99.99,,,-99.99,,2013-04-12 05:23:00,
2013-04-12 01:32:00,77.0,-99.9,29.92,North,-999,-999.0,-999.0,-999,-99.99,,,-99.99,,2013-04-12 05:32:00,
2013-04-12 01:42:00,76.0,-99.9,29.91,North,-999,-999.0,-999.0,-999,-99.99,,,-99.99,,2013-04-12 05:42:00,
2013-04-12 01:52:00,-999.0,-99.9,29.89,SSE,157,14.0,15.0,-999,-99.99,,,-99.99,,2013-04-12 05:52:00,
2013-04-12 02:02:00,-999.0,-99.9,29.90,South,170,11.0,14.0,-999,-99.99,,,-99.99,,2013-04-12 06:02:00,
2013-04-12 02:12:00,-999.0,-99.9,29.90,SSE,160,8.0,10.0,-999,-99.99,,,-99.99,,2013-04-12 06:12:00,
2013-04-12 02:22:00,-999.0,-99.9,29.90,SSE,156,10.0,11.0,-999,-99.99,,,-99.99,,2013-04-12 06:22:00,
2013-04-12 02:32:00,75.0,-99.9,29.91,North,-999,-999.0,-999.0,-999,-99.99,,,-99.99,,2013-04-12 06:32:00,
2013-04-12 02:42:00,76.0,-99.9,29.91,North,-999,-999.0,-999.0,-999,-99.99,,,-99.99,,2013-04-12 06:42:00,
2013-04-12 02:52:00,-999.0,-99.9,29.91,SSE,163,9.0,11.0,-999,-99.99,,,-99.99,,2013-04-12 06:52:00,
2013-04-12 03:02:00,-999.0,-99.9,29.90,SSE,163,12.0,14.0,-999,-99.99,,,-99.99,,2013-04-12 07:02:00,
2013-04-12 03:12:00,-999.0,-99.9,29.89,SSE,160,12.0,17.0,-999,-99.99,,,-99.99,,2013-04-12 07:12:00,
2013-04-12 03:22:00,-999.0,-99.9,29.90,SSE,162,13.0,15.0,-999,-99.99,,,-99.99,,2013-04-12 07:22:00,
2013-04-12 03:32:00,-999.0,-99.9,29.90,SSE,157,10.0,14.0,-999,-99.99,,,-99.99,,2013-04-12 07:32:00,
2013-04-12 03:42:00,-999.0,-99.9,29.90,SSE,158,9.0,12.0,-999,-99.99,,,-99.99,,2013-04-12 07:42:00,
2013-04-12 03:52:00,76.0,-99.9,29.90,North,-999,-999.0,-999.0,-999,-99.99,,,-99.99,,2013-04-12 07:52:00,
2013-04-12 04:03:00,-999.0,-99.9,29.89,SSE,148,10.0,12.0,-999,-99.99,,,-99.99,,2013-04-12 08:03:00,
2013-04-12 04:12:00,-999.0,-99.9,29.89,SSE,148,10.0,12.0,-999,-99.99,,,-99.99,,2013-04-12 08:12:00,
2013-04-12 04:22:00,-999.0,-99.9,29.90,SE,127,5.0,6.0,-999,-99.99,,,-99.99,,2013-04-12 08:22:00,
2013-04-12 04:32:00,-999.0,-99.9,29.90,ESE,110,3.0,6.0,-999,-99.99,,,-99.99,,2013-04-12 08:32:00,
2013-04-12 04:43:00,-999.0,-99.9,29.90,ESE,108,3.0,5.0,-999,-99.99,,,-99.99,,2013-04-12 08:43:00,
2013-04-12 04:53:00,75.0,-99.9,29.90,North,-999,-999.0,-999.0,-999,-99.99,,,-99.99,,2013-04-12 08:53:00,
2013-04-12 05:02:00,-999.0,-99.9,29.90,ESE,115,4.0,5.0,-999,-99.99,,,-99.99,,2013-04-12 09:02:00,
2013-04-12 05:22:00,74.0,-99.9,29.91,North,-999,-999.0,-999.0,-999,-99.99,,,-99.99,,2013-04-12 09:22:00,
2013-04-12 05:44:00,-999.0,-99.9,29.90,ESE,111,4.0,6.0,-999,-99.99,,,-99.99,,2013-04-12 09:44:00,
2013-04-12 05:53:00,-999.0,-99.9,29.90,ESE,116,4.0,6.0,-999,-99.99,,,-99.99,,2013-04-12 09:53:00,
2013-04-12 06:03:00,-999.0,-99.9,29.89,ESE,118,4.0,6.0,-999,-99.99,,,-99.99,,2013-04-12 10:03:00,
2013-04-12 06:23:00,-999.0,-99.9,29.89,SE,130,7.0,9.0,-999,-99.99,,,-99.99,,2013-04-12 10:23:00,
2013-04-12 06:34:00,74.0,-99.9,29.89,North,-999,-999.0,-999.0,-999,-99.99,,,-99.99,,2013-04-12 10:34:00,
2013-04-12 06:43:00,-999.0,-99.9,29.89,SE,132,8.0,10.0,-999,-99.99,,,-99.99,,2013-04-12 10:43:00,
2013-04-12 06:53:00,-999.0,-99.9,29.89,SE,136,7.0,11.0,-999,-99.99,,,-99.99,,2013-04-12 10:53:00,
2013-04-12 07:22:00,-999.0,-99.9,29.89,SSE,151,11.0,14.0,-999,-99.99,,,-99.99,,2013-04-12 11:22:00,
2013-04-12 07:33:00,74.0,-99.9,29.90,North,-999,-999.0,-999.0,-999,-99.99,,,-99.99,,2013-04-12 11:33:00,
2013-04-12 07:43:00,-999.0,-99.9,29.90,SSE,155,11.0,13.0,-999,-99.99,,,-99.99,,2013-04-12 11:43:00,
2013-04-12 07:53:00,-999.0,-99.9,29.91,SSE,159,10.0,12.0,-999,-99.99,,,-99.99,,2013-04-12 11:53:00,
2013-04-12 08:03:00,-999.0,-99.9,29.91,SSE,161,10.0,12.0,-999,-99.99,,,-99.99,,2013-04-12 12:03:00,
2013-04-12 08:13:00,-999.0,-99.9,29.92,South,169,9.0,10.0,-999,-99.99,,,-99.99,,2013-04-12 12:13:00,
2013-04-12 08:22:00,74.0,-99.9,29.92,North,-999,-999.0,-999.0,-999,-99.99,,,-99.99,,2013-04-12 12:22:00,
2013-04-12 08:33:00,74.0,-99.9,29.92,North,-999,-999.0,-999.0,-999,-99.99,,,-99.99,,2013-04-12 12:33:00,
2013-04-12 08:43:00,-999.0,-99.9,29.92,SSE,163,10.0,11.0,-999,-99.99,,,-99.99,,2013-04-12 12:43:00,
2013-04-12 08:54:00,74.0,-99.9,29.92,North,-999,-999.0,-999.0,-999,-99.99,,,-99.99,,2013-04-12 12:54:00,
2013-04-12 09:03:00,-999.0,-99.9,29.92,SSE,166,7.0,8.0,-999,-99.99,,,-99.99,,2013-04-12 13:03:00,
2013-04-12 09:22:00,-999.0,-99.9,29.92,South,174,9.0,10.0,-999,-99.99,,,-99.99,,2013-04-12 13:22:00,
2013-04-12 09:33:00,75.0,-99.9,29.92,North,-999,-999.0,-999.0,-999,-99.99,,,-99.99,,2013-04-12 13:33:00,
2013-04-12 09:43:00,-999.0,-99.9,29.92,South,170,8.0,8.0,-999,-99.99,,,-99.99,,2013-04-12 13:43:00,
2013-04-12 09:53:00,75.0,-99.9,29.92,North,-999,-999.0,-999.0,-999,-99.99,,,-99.99,,2013-04-12 13:53:00,
2013-04-12 10:04:00,76.0,-99.9,29.93,North,-999,-999.0,-999.0,-999,-99.99,,,-99.99,,2013-04-12 14:04:00,
2013-04-12 10:23:00,76.0,-99.9,29.93,North,-999,-999.0,-999.0,-999,-99.99,,,-99.99,,2013-04-12 14:23:00,
2013-04-12 10:33:00,-999.0,-99.9,29.93,South,183,14.0,17.0,-999,-99.99,,,-99.99,,2013-04-12 14:33:00,
2013-04-12 10:43:00,76.0,-99.9,29.94,North,-999,-999.0,-999.0,-999,-99.99,,,-99.99,,2013-04-12 14:43:00,
2013-04-12 10:54:00,-999.0,-99.9,29.93,South,186,14.0,16.0,-999,-99.99,,,-99.99,,2013-04-12 14:54:00,
2013-04-12 11:03:00,-999.0,-99.9,29.94,South,191,15.0,18.0,-999,-99.99,,,-99.99,,2013-04-12 15:03:00,
2013-04-12 11:12:00,-999.0,-99.9,29.94,SSW,192,14.0,18.0,-999,-99.99,,,-99.99,,2013-04-12 15:12:00,
2013-04-12 11:22:00,-999.0,-99.9,29.95,SSW,195,13.0,18.0,-999,-99.99,,,-99.99,,2013-04-12 15:22:00,
2013-04-12 11:43:00,-999.0,-99.9,29.95,South,190,14.0,17.0,-999,-99.99,,,-99.99,,2013-04-12 15:43:00,
2013-04-12 11:53:00,-999.0,-99.9,29.95,South,189,15.0,19.0,-999,-99.99,,,-99.99,,2013-04-12 15:53:00,
2013-04-12 12:04:00,-999.0,-99.9,29.95,SSW,194,14.0,18.0,-999,-99.99,,,-99.99,,2013-04-12 16:04:00,
2013-04-12 12:23:00,-999.0,-99.9,29.95,SSW,201,15.0,19.0,-999,-99.99,,,-99.99,,2013-04-12 16:23:00,
2013-04-12 12:34:00,77.0,-99.9,29.95,North,-999,-999.0,-999.0,-999,-99.99,,,-99.99,,2013-04-12 16:34:00,
2013-04-12 12:43:00,77.0,-99.9,29.95,North,-999,-999.0,-999.0,-999,-99.99,,,-99.99,,2013-04-12 16:43:00,
2013-04-12 12:53:00,-999.0,-99.9,29.95,SSW,197,18.0,21.0,-999,-99.99,,,-99.99,,2013-04-12 16:53:00,
2013-04-12 13:12:00,-999.0,-99.9,29.95,SSW,195,21.0,24.0,-999,-99.99,,,-99.99,,2013-04-12 17:12:00,
2013-04-12 13:23:00,77.0,-99.9,29.94,North,-999,-999.0,-999.0,-999,-99.99,,,-99.99,,2013-04-12 17:23:00,
2013-04-12 13:34:00,77.0,-99.9,29.94,North,-999,-999.0,-999.0,-999,-99.99,,,-99.99,,2013-04-12 17:34:00,
2013-04-12 13:47:00,-999.0,-99.9,29.94,SSW,198,20.0,23.0,-999,-99.99,,,-99.99,,2013-04-12 17:47:00,
2013-04-12 14:12:00,-999.0,-99.9,29.93,SSW,200,18.0,23.0,-999,-99.99,,,-99.99,,2013-04-12 18:12:00,
2013-04-12 15:27:00,77.0,-99.9,29.93,North,-999,-999.0,-999.0,-999,-99.99,,,-99.99,,2013-04-12 19:27:00,
2013-04-12 15:43:00,-999.0,-99.9,29.91,SSW,211,17.0,21.0,-999,-99.99,,,-99.99,,2013-04-12 19:43:00,
2013-04-12 15:53:00,76.0,-99.9,29.91,North,-999,-999.0,-999.0,-999,-99.99,,,-99.99,,2013-04-12 19:53:00,
2013-04-12 16:02:00,-999.0,-99.9,29.91,SW,219,19.0,23.0,-999,-99.99,,,-99.99,,2013-04-12 20:02:00,
2013-04-12 16:22:00,-999.0,-99.9,29.89,SSW,203,19.0,23.0,-999,-99.99,,,-99.99,,2013-04-12 20:22:00,
2013-04-12 16:43:00,76.0,-99.9,29.89,North,-999,-999.0,-999.0,-999,-99.99,,,-99.99,,2013-04-12 20:43:00,
2013-04-12 16:52:00,76.0,-99.9,29.88,North,-999,-999.0,-999.0,-999,-99.99,,,-99.99,,2013-04-12 20:52:00,
2013-04-12 17:03:00,76.0,-99.9,29.86,North,-999,-999.0,-999.0,-999,-99.99,,,-99.99,,2013-04-12 21:03:00,
2013-04-12 17:12:00,-999.0,-99.9,29.85,SSW,196,23.0,30.0,-999,-99.99,,,-99.99,,2013-04-12 21:12:00,
2013-04-12 17:22:00,76.0,-99.9,29.83,North,-999,-999.0,-999.0,-999,-99.99,,,-99.99,,2013-04-12 21:22:00,
2013-04-12 17:33:00,-999.0,-99.9,29.85,SSW,208,21.0,32.0,-999,-99.99,,,-99.99,,2013-04-12 21:33:00,
2013-04-12 17:43:00,-999.0,-99.9,29.87,SW,229,18.0,24.0,-999,-99.99,,,-99.99,,2013-04-12 21:43:00,
2013-04-12 17:53:00,76.0,-99.9,29.87,North,-999,-999.0,-999.0,-999,-99.99,,,-99.99,,2013-04-12 21:53:00,
2013-04-12 18:13:00,-999.0,-99.9,29.82,South,190,26.0,32.0,-999,-99.99,,,-99.99,,2013-04-12 22:13:00,
2013-04-12 18:23:00,76.0,-99.9,29.82,North,-999,-999.0,-999.0,-999,-99.99,,,-99.99,,2013-04-12 22:23:00,
2013-04-12 18:33:00,-999.0,-99.9,29.83,SSW,199,20.0,26.0,-999,-99.99,,,-99.99,,2013-04-12 22:33:00,
2013-04-12 18:43:00,76.0,-99.9,29.84,North,-999,-999.0,-999.0,-999,-99.99,,,-99.99,,2013-04-12 22:43:00,
2013-04-12 18:52:00,76.0,-99.9,29.83,North,-999,-999.0,-999.0,-999,-99.99,,,-99.99,,2013-04-12 22:52:00,
2013-04-12 19:04:00,-999.0,-99.9,29.84,SSW,205,23.0,32.0,-999,-99.99,,,-99.99,,2013-04-12 23:04:00,
2013-04-12 19:12:00,-999.0,-99.9,29.83,SSW,197,21.0,28.0,-999,-99.99,,,-99.99,,2013-04-12 23:12:00,
2013-04-12 19:22:00,76.0,-99.9,29.82,North,-999,-999.0,-999.0,-999,-99.99,,,-99.99,,2013-04-12 23:22:00,
2013-04-12 19:32:00,76.0,-99.9,29.84,North,-999,-999.0,-999.0,-999,-99.99,,,-99.99,,2013-04-12 23:32:00,
2013-04-12 19:42:00,-999.0,-99.9,29.84,SSW,197,19.0,24.0,-999,-99.99,,,-99.99,,2013-04-12 23:42:00,
2013-04-12 19:52:00,-999.0,-99.9,29.85,SSW,197,21.0,25.0,-999,-99.99,,,-99.99,,2013-04-12 23:52:00,
2013-04-12 20:02:00,-999.0,-99.9,29.85,SSW,193,20.0,26.0,-999,-99.99,,,-99.99,,2013-04-13 00:02:00,
2013-04-12 20:22:00,76.0,-99.9,29.86,North,-999,-999.0,-999.0,-999,-99.99,,,-99.99,,2013-04-13 00:22:00,
2013-04-12 20:32:00,-999.0,-99.9,29.90,WSW,257,15.0,21.0,-999,-99.99,,,-99.99,,2013-04-13 00:32:00,
2013-04-12 20:42:00,76.0,-99.9,29.89,North,-999,-999.0,-999.0,-999,-99.99,,,-99.99,,2013-04-13 00:42:00,
2013-04-12 20:52:00,-999.0,-99.9,29.90,SW,231,9.0,16.0,-999,-99.99,,,-99.99,,2013-04-13 00:52:00,
2013-04-12 21:02:00,76.0,-99.9,29.90,North,-999,-999.0,-999.0,-999,-99.99,,,-99.99,,2013-04-13 01:02:00,
2013-04-12 21:13:00,-999.0,-99.9,29.90,WNW,289,13.0,17.0,-999,-99.99,,,-99.99,,2013-04-13 01:13:00,
2013-04-12 21:23:00,76.0,-99.9,29.91,North,-999,-999.0,-999.0,-999,-99.99,,,-99.99,,2013-04-13 01:23:00,
2013-04-12 21:33:00,-999.0,-99.9,29.91,WNW,296,10.0,13.0,-999,-99.99,,,-99.99,,2013-04-13 01:33:00,
2013-04-12 21:43:00,-999.0,-99.9,29.91,West,281,6.0,8.0,-999,-99.99,,,-99.99,,2013-04-13 01:43:00,
2013-04-12 21:52:00,-999.0,-99.9,29.90,ESE,112,2.0,3.0,-999,-99.99,,,-99.99,,2013-04-13 01:52:00,
2013-04-12 22:02:00,76.0,-99.9,29.90,North,-999,-999.0,-999.0,-999,-99.99,,,-99.99,,2013-04-13 02:02:00,
2013-04-12 22:12:00,-999.0,-99.9,29.90,ESE,122,4.0,5.0,-999,-99.99,,,-99.99,,2013-04-13 02:12:00,
2013-04-12 22:23:00,75.0,-99.9,29.91,North,-999,-999.0,-999.0,-999,-99.99,,,-99.99,,2013-04-13 02:23:00,
2013-04-12 22:43:00,-999.0,-99.9,29.92,NNW,344,5.0,7.0,-999,-99.99,,,-99.99,,2013-04-13 02:43:00,
2013-04-12 22:53:00,74.0,-99.9,29.92,North,-999,-999.0,-999.0,-999,-99.99,,,-99.99,,2013-04-13 02:53:00,
2013-04-12 23:03:00,-999.0,-99.9,29.92,NNW,342,9.0,13.0,-999,-99.99,,,-99.99,,2013-04-13 03:03:00,
2013-04-12 23:12:00,-999.0,-99.9,29.93,NNW,328,7.0,12.0,-999,-99.99,,,-99.99,,2013-04-13 03:12:00,
2013-04-12 23:23:00,-999.0,-99.9,29.92,NE,38,4.0,6.0,-999,-99.99,,,-99.99,,2013-04-13 03:23:00,
2013-04-12 23:33:00,-999.0,-99.9,29.93,NNE,16,6.0,7.0,-999,-99.99,,,-99.99,,2013-04-13 03:33:00,
2013-04-12 23:43:00,-999.0,-99.9,29.92,NNE,30,4.0,8.0,-999,-99.99,,,-99.99,,2013-04-13 03:43:00,
2013-04-12 23:54:00,-999.0,-99.9,29.93,North,8,6.0,8.0,-999,-99.99,,,-99.99,,2013-04-13 03:54:00,